Location: Luxembourg
(49.6117°N, 6.1300°E)
Time: 13:28:14
(UTC+01:00)

N. Korean satellite - Pass Details

Date: 29 January 2019
Orbit: 456 x 510 km, 97.2° (Epoch: 23 February)

Event Time Altitude Azimuth Distance (km) Brightness Sun altitude
Rises 19:03:45 0° 210° (SSW) 2,603 10.9 -15.9°
Reaches altitude 10° 19:06:34 10° 234° (SW) 1,729 10.3 -16.4°
Maximum altitude 19:08:47 15° 270° (W) 1,444 10.1 -16.7°
Drops below altitude 10° 19:11:01 10° 307° (NW) 1,741 10.0 -17.1°
Sets 19:13:53 0° 331° (NNW) 2,632 10.6 -17.5°
